Theta_e
323 319 322 320 307 308 302 304 309 307 307 313 316 315 316 319 315 311 335 339 341 343 345 345 347 347 346 346 345 345 346 345 345 344 342 343 342 343 342 343 344 344 343 342 341 340 339 338 337
318 317 323 316 304 300 301 306 307 309 315 318 318 319 317 316 326 327 332 339 342 343 344 344 344 346 345 346 345 344 343 343 341 341 341 341 342 342 342 342 344 343 341 341 340 339 338 336 335
316 317 315 310 304 300 300 304 309 314 313 312 315 321 320 320 325 329 337 340 342 343 343 343 343 345 345 344 345 344 343 338 341 338 338 339 338 339 341 342 342 342 342 340 339 337 335 334 334
314 318 313 305 300 302 302 307 310 313 312 312 317 315 324 329 329 334 339 341 340 342 343 342 344 344 344 345 345 344 343 339 341 338 337 336 338 338 341 342 342 340 339 340 338 336 335 334 333
316 314 306 302 301 304 305 307 313 310 309 313 314 315 321 330 333 337 337 340 341 341 342 343 343 343 343 345 345 344 343 341 340 338 337 336 336 337 337 338 339 338 338 338 337 335 334 333 332
312 312 304 300 299 304 306 311 311 309 310 313 316 319 322 331 334 334 338 339 341 340 342 343 336 339 341 343 343 342 341 340 339 339 338 335 336 336 335 335 337 337 336 336 336 334 333 332 331
313 308 303 301 300 302 307 311 309 309 310 311 321 316 322 326 333 335 338 340 340 340 341 342 340 338 336 338 339 340 339 339 338 338 338 337 336 336 335 336 336 336 335 334 334 333 332 331 329
312 312 300 299 301 300 308 309 308 310 309 318 320 310 318 329 332 335 337 338 337 337 340 340 342 340 338 339 331 334 336 337 336 335 333 331 332 332 332 332 335 335 334 333 332 332 331 329 328
310 308 302 304 300 302 305 307 306 309 313 316 318 317 322 332 332 331 331 332 333 333 337 339 341 340 338 337 333 330 331 331 329 329 327 329 333 332 330 330 333 333 333 330 329 328 327 326 325
309 307 307 308 304 303 303 305 306 306 310 311 314 320 329 331 329 326 326 327 327 329 332 337 338 339 338 335 336 335 335 335 334 334 335 335 334 332 330 326 326 328 330 330 328 326 324 326 328
307 307 308 305 303 303 303 303 305 306 305 311 311 318 326 328 327 328 326 328 327 330 331 336 337 338 337 336 336 335 334 333 333 333 334 335 334 332 332 331 329 329 322 327 327 328 327 327 327
302 306 307 306 305 302 303 304 302 305 308 307 312 321 326 326 326 326 326 327 326 328 330 332 336 334 337 338 336 335 332 332 330 331 332 333 333 332 331 330 329 329 330 328 328 328 327 325 324
305 305 304 307 303 303 303 302 302 303 308 308 310 321 325 327 327 328 328 328 327 327 328 329 335 333 334 334 334 333 333 331 330 330 329 329 331 331 330 329 329 328 327 327 327 326 326 325 324
310 306 304 302 302 303 305 304 302 306 307 307 313 319 323 326 327 328 328 326 327 328 328 330 333 335 332 332 332 332 335 333 330 330 329 328 329 329 329 328 327 327 327 328 328 327 326 326 325
306 303 303 304 302 303 303 304 300 309 305 306 311 316 321 324 327 327 329 328 329 330 329 329 332 333 332 330 333 331 331 334 332 329 330 330 330 329 329 328 327 327 328 327 328 328 327 326 324
305 305 301 307 303 303 303 301 308 308 304 307 309 313 318 322 325 328 330 329 330 332 330 329 330 331 332 331 331 331 331 332 333 332 331 331 331 330 329 328 327 328 328 328 327 327 326 325 324
302 300 300 304 302 300 299 302 305 305 304 307 308 310 315 318 323 327 329 331 332 333 332 330 329 329 330 331 332 331 332 333 334 334 333 331 331 330 330 329 329 328 328 327 327 326 325 325 325
297 299 298 301 301 297 297 297 303 303 301 304 306 307 312 316 319 324 328 331 332 334 335 333 330 329 330 331 331 331 331 331 333 333 333 333 333 329 325 324 323 323 324 327 326 325 323 324 323
302 299 299 300 303 300 301 300 304 307 303 303 304 304 306 312 319 323 325 329 331 333 333 333 331 330 329 328 327 328 327 330 331 331 332 333 334 331 326 326 324 323 322 323 325 320 322 321 322
301 299 297 299 299 298 302 301 305 306 305 306 308 308 305 306 314 319 323 325 327 330 332 333 333 333 331 330 330 330 330 332 331 331 330 330 330 329 327 326 325 323 322 323 322 320 321 320 321
297 297 294 295 293 294 293 294 298 302 302 304 305 308 311 307 307 314 319 322 325 326 329 331 333 334 333 332 332 331 333 333 331 332 332 331 331 330 329 328 326 325 324 323 323 321 319 321 321
292 297 294 290 291 291 292 289 297 300 300 301 301 303 303 304 305 309 314 318 323 326 328 330 332 333 333 334 332 330 328 327 330 330 331 332 331 330 332 330 328 328 326 324 322 320 323 319 316
295 296 294 293 291 291 293 288 295 295 294 298 302 303 305 306 304 304 308 313 318 322 326 328 329 331 333 333 333 331 330 331 333 333 333 334 333 331 332 332 332 328 326 324 322 320 320 318 318
294 294 294 292 292 285 292 290 292 296 297 300 301 303 304 304 304 304 306 308 311 314 321 325 326 328 331 332 333 332 331 331 331 331 331 332 331 330 331 332 331 329 326 324 324 322 319 318 317
294 291 284 282 282 284 288 288 292 298 297 297 298 300 302 304 305 304 303 301 303 306 309 317 322 324 328 331 331 332 332 332 331 331 332 331 329 326 328 330 327 327 326 324 322 320 317 316 315
291 292 285 280 280 285 283 285 293 298 300 300 299 301 300 299 301 302 303 303 303 304 306 307 312 319 325 328 330 331 332 332 332 332 332 332 329 328 327 328 326 324 321 318 315 312 311 311 312
290 287 292 284 278 282 286 289 294 296 296 297 297 298 299 301 301 301 301 301 302 303 304 306 307 311 318 323 328 329 329 329 330 331 332 330 329 324 322 321 317 316 313 310 308 305 303 305 306
294 296 286 287 281 280 285 285 289 291 294 297 298 299 300 300 300 301 302 302 303 303 304 306 307 308 314 319 323 324 326 326 327 328 327 326 322 316 314 312 310 307 305 303 302 300 300 300 299
289 289 289 290 287 283 282 287 297 295 297 296 298 297 298 299 300 301 302 303 303 304 305 306 306 306 307 309 316 318 318 323 324 323 322 320 316 313 310 307 305 304 300 299 299 298 297 296 294
293 290 290 286 283 285 284 286 294 295 295 294 296 297 298 298 299 300 301 302 302 303 305 306 306 305 305 306 307 309 315 312 313 313 312 309 308 306 305 301 300 299 298 297 297 294 294 293 293
Wind_Speed
4 2 1 3 4 2 4 4 1 6 5 2 3 3 2 6 4 5 9 7 13 13 13 12 10 11 13 13 12 11 11 14 14 16 15 14 15 15 16 15 17 16 17 18 19 19 19 19 18
4 2 1 1 3 3 5 3 6 4 5 8 6 3 2 3 4 5 11 11 14 13 13 12 10 11 12 12 12 13 12 13 14 14 16 15 16 14 14 16 14 14 16 17 18 19 18 17 16
2 4 3 1 1 1 2 4 8 8 6 3 4 2 2 3 3 12 7 15 14 13 12 13 11 12 11 12 13 13 13 14 15 15 16 16 16 14 14 14 15 17 16 18 18 18 17 16 16
3 2 3 4 2 3 1 3 7 12 2 1 2 5 2 2 9 4 15 14 13 12 12 12 10 12 10 11 13 14 13 14 14 15 15 17 15 14 12 15 16 17 14 15 17 16 16 17 16
3 2 3 3 2 3 1 1 9 9 4 6 1 5 5 6 2 12 13 12 12 12 12 12 8 10 10 9 15 16 15 13 14 14 16 16 14 14 12 13 15 16 14 14 15 15 15 15 16
2 2 5 7 3 1 1 6 8 4 5 6 3 9 6 3 8 11 12 12 11 12 12 12 8 7 7 9 12 14 16 14 12 13 13 14 13 12 12 12 13 14 14 13 13 14 14 15 15
1 1 2 2 4 2 3 8 6 5 7 4 6 8 4 5 8 9 12 11 11 10 10 10 11 10 7 6 9 12 14 14 11 11 12 11 11 11 11 10 12 14 13 13 13 12 13 13 13
2 1 4 2 3 3 4 7 2 5 4 4 2 4 5 11 11 9 11 11 10 8 8 10 11 10 9 8 6 7 9 10 11 10 9 9 10 10 9 9 10 12 12 12 12 13 11 12 11
2 3 4 6 4 5 4 5 1 1 6 2 4 1 2 18 15 11 10 10 9 8 8 9 10 9 8 8 7 7 7 8 9 9 9 8 7 8 7 11 10 10 10 11 11 10 9 8 9
5 6 7 3 5 6 3 4 4 5 5 5 5 4 10 16 17 16 14 12 12 12 10 10 11 10 9 7 8 7 8 6 5 6 7 5 6 6 8 8 9 9 10 10 9 8 4 1 4
4 6 6 6 6 3 4 3 0 3 5 7 10 13 15 17 16 17 16 15 14 13 10 10 11 9 9 8 7 5 4 5 5 6 5 6 5 5 4 5 4 5 2 3 3 3 4 5 4
5 3 6 8 6 2 3 4 1 5 2 2 6 13 19 19 19 19 17 16 15 14 13 11 12 10 9 7 6 6 5 5 5 6 6 5 4 4 4 3 3 2 2 3 2 2 3 4 3
5 3 3 5 7 4 3 3 1 9 9 5 3 13 19 19 18 16 15 15 14 15 14 13 13 12 9 8 7 6 5 6 6 6 7 5 4 4 4 4 3 3 2 2 2 2 1 2 2
5 6 4 5 3 3 6 3 3 4 2 3 6 14 16 20 20 16 16 17 16 14 15 14 15 14 12 10 10 7 6 7 6 6 6 7 5 5 4 4 4 3 2 3 2 1 1 0 0
5 5 3 6 4 5 5 8 10 9 3 4 8 11 14 16 17 21 19 18 16 15 15 15 15 14 14 12 10 8 7 6 7 6 8 8 6 6 5 4 4 3 3 3 2 2 2 2 2
9 5 6 5 9 2 4 15 10 8 6 9 10 11 12 15 19 17 16 16 15 15 17 17 13 14 14 12 10 8 7 7 7 7 7 9 8 7 6 5 4 4 3 3 3 2 2 3 3
8 9 14 7 4 3 9 9 5 5 9 14 12 12 13 14 17 16 17 17 16 17 16 16 16 16 16 14 10 10 10 9 8 7 7 10 9 9 6 4 4 6 4 4 4 3 4 3 3
13 17 6 10 4 5 6 17 14 9 7 11 11 12 13 15 18 17 17 17 17 17 16 16 14 16 15 10 9 8 7 8 8 8 8 10 8 10 7 5 5 5 4 5 4 5 2 4 4
8 8 13 5 4 4 12 18 19 15 13 16 15 12 13 16 14 15 17 17 17 17 17 18 17 17 12 10 10 9 9 9 8 7 10 11 10 10 9 6 6 6 6 6 5 3 6 4 2
9 9 6 3 3 3 13 21 22 18 17 19 21 19 15 15 12 14 16 17 18 18 19 20 19 18 15 12 11 8 10 9 9 8 9 10 10 9 8 8 7 7 6 8 8 6 3 3 3
12 11 4 3 1 2 8 19 24 17 19 19 20 19 18 17 16 15 16 18 18 20 20 19 19 19 17 16 11 9 6 5 8 9 9 10 11 11 12 11 9 9 7 7 8 7 7 4 3
13 7 8 5 3 9 0 11 14 13 13 14 18 19 20 19 15 17 18 18 19 18 17 19 19 19 18 19 14 18 13 11 10 10 9 9 12 11 13 11 9 10 7 7 6 5 6 4 4
7 13 11 5 4 7 10 9 7 5 10 15 18 18 21 18 17 17 18 18 20 14 17 18 19 19 19 18 19 15 16 11 10 10 12 12 10 10 11 12 11 8 7 6 7 6 6 4 3
19 12 8 5 5 10 13 11 12 12 15 12 10 14 18 19 18 17 14 12 14 13 14 15 18 20 19 20 20 20 19 15 12 11 10 7 8 8 10 10 10 8 6 7 7 7 7 6 4
12 16 4 4 5 9 2 12 18 8 8 8 9 10 11 13 16 14 13 12 14 15 17 16 18 19 18 19 20 20 19 17 18 15 11 11 9 6 9 11 8 7 6 6 6 6 6 6 5
10 10 6 7 7 2 1 13 7 8 10 11 12 15 12 11 11 13 14 13 14 13 13 16 18 19 18 20 20 18 19 12 12 14 11 9 10 11 10 10 7 7 7 6 6 5 4 6 5
6 9 3 4 3 2 7 10 14 13 15 12 11 8 14 13 10 9 9 10 12 12 14 15 15 16 17 19 16 16 15 17 14 15 12 9 9 8 10 9 9 7 8 9 8 6 6 6 6
14 16 6 5 7 8 9 9 15 2 6 9 14 16 10 8 8 9 11 12 10 11 11 13 14 16 15 16 14 13 14 15 13 11 12 12 10 10 11 10 10 9 9 9 9 7 7 8 6
11 11 5 7 6 6 7 9 6 14 12 8 7 5 9 8 7 9 9 8 8 8 10 12 12 13 13 13 12 9 6 10 11 10 10 10 11 12 12 12 12 12 10 9 8 9 10 10 9
16 13 17 8 9 5 4 12 8 7 5 5 8 9 7 8 9 8 9 8 8 8 9 10 10 9 7 8 11 12 10 5 7 7 8 9 10 10 13 11 11 12 11 11 11 12 10 11 11
Wind_Direction
301 341 294 255 235 250 122 138 101 144 149 83 110 251 332 6 335 37 139 125 141 136 133 139 121 119 118 120 116 101 106 113 111 103 96 96 92 84 79 79 76 83 88 86 84 76 73 71 69
323 313 231 317 258 223 112 137 166 122 103 122 112 145 205 76 68 114 140 155 144 140 138 133 124 126 129 129 125 112 99 99 99 99 99 101 96 98 94 86 91 92 93 85 80 79 75 71 67
306 13 274 321 245 150 102 178 134 123 120 156 122 337 34 75 80 153 113 152 145 142 134 130 137 137 136 117 115 114 105 115 106 107 105 102 100 91 93 95 89 82 83 90 85 82 77 71 68
23 172 140 254 146 113 39 145 138 148 153 128 144 125 126 332 154 121 145 151 149 141 136 137 136 132 123 116 124 120 111 110 109 104 106 102 95 87 83 83 87 88 80 83 88 84 76 71 68
58 271 191 194 168 115 188 150 167 155 118 130 206 127 99 122 113 136 154 157 148 142 136 143 135 131 123 111 124 119 111 101 103 107 105 106 101 100 97 77 78 86 86 89 89 88 80 74 70
66 266 206 201 157 121 161 154 159 168 139 132 175 140 131 60 141 149 163 156 155 143 147 138 127 113 114 115 110 112 113 111 110 113 106 110 106 105 104 101 92 92 90 89 90 87 78 72 69
171 266 158 160 146 169 130 157 186 174 154 152 135 148 107 159 149 159 165 152 151 141 152 148 147 133 95 102 106 108 119 119 115 108 112 108 93 98 104 91 92 94 94 91 85 84 80 78 73
134 134 140 261 171 96 130 167 329 208 126 103 215 176 158 163 154 165 160 154 137 149 163 161 148 153 148 137 79 97 106 111 106 101 99 93 95 89 81 98 87 98 96 86 80 76 78 75 71
245 168 212 204 167 111 143 198 106 120 135 172 165 286 58 140 147 153 157 159 155 158 170 174 156 149 147 142 118 106 82 82 100 106 111 142 120 112 122 67 82 90 93 89 85 78 74 88 77
204 211 206 192 128 127 122 225 156 197 156 180 183 134 137 146 159 171 179 175 177 174 176 175 168 165 153 146 156 144 139 150 133 133 144 124 124 95 100 89 79 73 80 88 89 82 97 24 58
184 209 169 168 108 133 121 122 328 213 209 206 212 168 163 167 172 182 189 185 189 175 181 188 173 168 170 163 163 161 158 150 148 148 150 142 134 142 130 133 137 129 147 120 124 106 63 61 43
180 198 188 147 133 146 118 107 304 254 302 58 234 171 167 180 185 190 189 189 186 182 187 187 175 178 179 173 186 169 164 164 165 163 159 155 158 152 142 130 115 110 84 121 122 101 70 74 71
203 162 167 130 145 141 155 91 35 264 294 272 201 175 182 187 191 194 198 192 187 190 185 187 185 182 178 189 182 182 181 183 170 171 168 175 166 162 158 149 146 130 137 127 133 125 85 53 46
181 170 140 162 172 196 259 219 204 223 13 202 212 205 195 196 194 192 196 197 190 196 191 187 191 182 186 192 195 193 198 185 181 178 182 179 172 168 172 165 162 160 165 144 135 97 78 72 299
133 163 154 179 187 217 212 237 224 244 200 239 224 231 217 207 195 205 199 200 194 197 187 192 192 190 179 191 194 196 205 206 190 188 180 185 190 178 179 172 175 169 162 164 173 167 212 243 241
188 218 206 168 181 193 230 255 229 221 209 247 237 227 228 221 216 209 202 208 202 202 193 186 190 194 193 189 199 198 193 210 203 194 189 191 193 191 188 183 184 172 184 197 202 208 234 255 261
193 211 212 212 191 165 227 268 266 249 229 252 234 224 224 226 225 219 207 204 206 207 195 194 189 196 196 202 199 200 200 201 203 201 200 198 195 194 198 199 182 180 191 207 206 215 240 247 247
190 213 215 213 144 205 229 263 262 247 243 254 257 240 223 225 224 214 217 210 204 207 202 198 195 197 200 199 206 210 209 213 202 204 205 204 200 195 191 196 191 186 203 210 211 227 215 266 297
196 209 218 148 168 235 244 261 268 262 248 256 252 243 244 238 225 215 211 212 213 208 204 201 197 199 193 199 196 207 210 209 210 208 207 205 209 197 192 199 196 198 203 208 216 206 232 240 232
170 186 194 197 151 218 272 267 268 261 251 247 254 248 239 240 231 219 212 209 213 213 210 207 201 201 197 193 196 203 210 215 211 200 199 201 199 192 189 191 199 201 215 210 202 203 198 249 205
205 210 162 260 101 200 291 271 264 252 241 240 240 250 253 233 221 225 217 216 210 218 214 214 208 204 199 201 196 196 201 210 211 210 206 208 206 200 195 199 195 199 202 212 212 201 204 234 196
201 188 162 141 215 265 5 283 273 271 266 248 244 238 235 234 227 222 206 212 217 219 213 216 211 211 206 200 199 198 202 199 205 205 203 199 203 208 211 207 204 206 201 210 196 177 212 195 209
191 169 189 189 265 309 225 270 267 263 270 259 252 241 240 234 228 223 221 212 209 204 214 216 212 210 207 205 204 202 208 206 207 212 210 203 197 207 212 213 213 206 197 199 177 179 194 197 199
139 122 63 59 233 254 246 231 259 254 256 259 262 258 241 234 233 235 228 216 216 193 203 216 216 214 208 207 209 209 209 207 205 201 204 199 194 191 208 209 208 204 192 190 183 172 182 188 179
155 144 127 179 195 246 338 217 250 270 252 258 273 277 255 253 252 246 231 213 217 208 195 203 214 218 208 208 210 210 213 209 212 207 206 200 191 184 197 199 194 192 189 169 152 158 157 161 154
163 167 166 206 205 247 128 236 251 229 266 263 275 260 277 266 248 236 235 228 225 214 214 203 203 216 210 211 212 210 210 212 210 211 205 206 195 191 174 184 177 155 135 122 115 112 110 119 130
142 202 132 91 45 244 214 259 276 233 251 256 255 263 260 259 269 269 263 249 248 235 220 213 210 214 211 213 212 210 208 211 208 209 206 201 190 167 149 149 141 142 128 123 126 123 118 109 119
180 145 163 202 209 238 232 265 252 199 215 252 254 255 262 293 274 260 258 250 247 242 230 218 214 216 207 211 214 212 211 211 208 202 196 189 172 149 142 139 137 136 131 122 122 117 129 125 118
152 179 183 167 217 230 264 247 242 231 239 250 271 276 279 280 294 299 289 276 258 241 230 214 211 205 204 192 204 207 203 195 197 196 184 170 164 156 149 147 145 146 139 132 131 137 139 131 128
202 193 180 188 192 249 301 270 160 214 220 222 252 284 287 290 300 291 281 263 237 232 225 222 205 199 204 199 177 192 200 172 169 170 158 151 152 150 150 139 142 139 149 141 149 148 144 143 142